Preview of NWS' New Version of Forecast
This preview is not operational and should not be used for support decisions.

Regional Weather Roundup (RWR)

Issued by National Weather Service (NWS)

                            
000
ASUS45 KABQ 242201
RWRNM 
NEW MEXICO REGIONAL WEATHER ROUNDUP
NATIONAL WEATHER SERVICE ALBUQUERQUE NM
400 PM MDT SUN MAR 24 2019

NOTE: "FAIR" MEANS FEW OR NO CLOUDS BELOW 12,000 FEET AGL WITH NO
       SIGNIFICANT WEATHER OR OBSTRUCTIONS TO VISION.

      THIS PRODUCT IS RELEASED AS TWO VERSIONS.  ONE VERSION NEAR
      THE TOP OF THE HOUR CONTAINING PRELIMINARY DATA FROM ALBUQUERQUE
      AND OTHER STATIONS.  A FINAL VERSION WITH ADDITIONAL DATA IS 
      ISSUED ABOUT 10 MINUTES AFTER THE HOUR.
 
NMZ501-503-504-510>518-242300-
NORTHWEST PLATEAU/NORTHCENTRAL MOUNTAINS
  
CITY           SKY/WX    TMP DP  RH WIND       PRES   REMARKS
FARMINGTON     FAIR      60  20  21 NW7G23    30.14F                  
LOS ALAMOS     FAIR      54  16  22 NW12G25   30.17S                  
SANTA FE       FAIR      61  16  17 W20G28    30.12F                  
TAOS           PTSUNNY   54  19  25 W16       30.15S                  
ANGEL FIRE       N/A     45  18  34 W13G26    30.17S                  

$$
NMZ402-403-502-505>509-242300-
WESTCENTRAL MOUNTAINS/SOUTHWEST MOUNTAINS
  
CITY           SKY/WX    TMP DP  RH WIND       PRES   REMARKS
GALLUP         FAIR      60  17  18 W16G24    30.19F                  
GRANTS         FAIR      60  10  13 W18G24    30.20R                  
SILVER CITY    FAIR      66  20  17 W16       30.17S                  

$$
NMZ407-409-411-412-242300-
SOUTHERN DESERTS
  
CITY           SKY/WX    TMP DP  RH WIND       PRES   REMARKS
DEMING         FAIR      72  15  11 SW20G26   30.12F                  
LAS CRUCES     FAIR      75  17  11 SW16G25   30.12F                  
ALAMOGORDO     FAIR      72  10   9 N6        30.10F                  
T OR C         FAIR      71  12  10 VRB5      30.09F                  

$$
NMZ519>523-242300-
CENTRAL VALLEYS/CENTRAL HIGHLANDS
  
CITY           SKY/WX    TMP DP  RH WIND       PRES   REMARKS
ALBUQUERQUE    FAIR      64  21  19 W9        30.13F                  
DOUBLE EAGLE   MOSUNNY   63  21  20 NW12G17   30.14F                  
CLINES CORNERS FAIR      59  18  20 W22G31    30.15F                  
BELEN          FAIR      67  17  14 W5        30.12S                  
SOCORRO        NOT AVBL                                               

$$
NMZ524>526-539-540-242300-
SOUTHCENTRAL MOUNTAINS
  
CITY           SKY/WX    TMP DP  RH WIND       PRES   REMARKS
RUIDOSO        FAIR      63   7  11 NW15G30   30.19S                  

$$
NMZ527>531-242300-
NORTHEAST HIGHLANDS/NORTHEAST PLAINS
  
CITY           SKY/WX    TMP DP  RH WIND       PRES   REMARKS
LAS VEGAS      FAIR      59  16  18 W25G32    30.09R                  
RATON          PTSUNNY   56  25  30 VRB6      30.06S                  
CLAYTON        FAIR      59  33  37 SE10G23   30.04F                  

$$
NMZ532>537-242300-
EASTCENTRAL PLAINS
  
CITY           SKY/WX    TMP DP  RH WIND       PRES   REMARKS
SANTA ROSA     FAIR      69  17  13 W21G26    30.04S                  
TUCUMCARI      FAIR      73  27  18 SW9       29.99F                  
CANNON AFB     NOT AVBL                                               
CLOVIS AIRPORT   N/A     70  25  18 SW16      30.06F                  

$$
NMZ028-029-538-242300-
SOUTHEAST PLAINS
  
CITY           SKY/WX    TMP DP  RH WIND       PRES   REMARKS
ROSWELL        FAIR      77  20  12 NE8       30.02F                  
ARTESIA        FAIR      77  23  13 NE7       30.01S                  
CARLSBAD       FAIR      80  19  10 SW20G26   29.98F                  
HOBBS          SUNNY     77  16  10 W12G21    30.04F                  


$$